Regional Weather Roundup
Issued by NWS

Home | Current Version | Previous Version | Text Only | Print | Product List | Glossary Off
Versions: 1 2 3 4 5 6 7 8 9 10 11 12 13 14 15 16 17 18 19 20 21 22 23 24 25 26 27 28 29 30 31 32 33 34 35 36 37 38 39 40 41 42 43 44 45 46 47 48 49 50

000
ASUS43 KMKX 180311
RWRWI

WISCONSIN REGIONAL WEATHER ROUNDUP
NATIONAL WEATHER SERVICE MILWAUKEE/SULLIVAN WI
900 PM CST TUE JAN 17 2017

NOTE: "FAIR" INDICATES FEW OR NO CLOUDS BELOW 12,000 FEET WITH NO
SIGNIFICANT WEATHER AND/OR OBSTRUCTIONS TO VISIBILITY.

WIZ001-002-006>008-014>016-023>028-180400-
NORTHWEST WISCONSIN

CITY           SKY/WX    TMP DP  RH WIND       PRES   REMARKS
SUPERIOR ARPT  CLOUDY    28  22  80 SW8       29.91S WCI  20
ASHLAND        CLEAR     19  17  92 SW7       29.90F WCI  10
HAYWARD        CLOUDY    24  21  88 CALM      29.92S
SIREN          CLOUDY    31  31  99 SW7       29.95S FOG     WCI  25
CUMBERLAND     FOG       28  28 100 SW7       29.95S VSB 1/4 WCI  21
RICE LAKE      SNOW      29  28  96 SW5       29.97S VSB 1/4 WCI  24
CHETEK         CLOUDY    28  28  99 W3        29.96S FOG
LADYSMITH      CLEAR     28  27  97 SW3       29.95R
EAU CLAIRE     FOG       30  30 100 W12       29.98R VSB 1/2 WCI  20
MENOMONIE      FOG       32  32  99 W8        29.99R VSB 3/4 WCI  25
NEW RICHMOND   CLOUDY    31  31 100 SW9       29.98S FOG     WCI  23
OSCEOLA        CLOUDY    32  32 100 SW10      30.01S WCI  24
$$

WIZ003>005-009-010-017-018-180400-
NORTH CENTRAL WISCONSIN

CITY           SKY/WX    TMP DP  RH WIND       PRES   REMARKS
MANITOWISH WTR   N/A     19  19 100 CALM      29.89S FOG
ARBOR VITAE    CLOUDY    24  22  94 CALM      29.89S FOG
WOODRUFF       CLOUDY    24  22  94 CALM      29.89S FOG
RHINELANDER    CLEAR     28  26  92 W5        29.89S WCI  23
EAGLE RIVER    FOG       23  22  99 CALM      29.88S VSB 1/2
LAND O LAKES   CLEAR     21  20  96 CALM      29.90R
PHILLIPS       FOG       19  19  97 CALM      29.91R VSB 1/2
TOMAHAWK       CLEAR     25  24  95 CALM      29.91S
MEDFORD        CLEAR     31  30  99 W5        29.92R FOG     WCI  26
MERRILL        FOG       30  30 100 CALM        N/A  VSB 1/2
$$

WIZ029-030-035-036-043>047-180400-
CENTRAL WISCONSIN

CITY           SKY/WX    TMP DP  RH WIND       PRES   REMARKS
WAUSAU         FOG       32  32 100 CALM      29.91R VSB 3/4
MOSINEE        CLEAR     32  32 100 W5        29.93R FOG     WCI  27
MARSHFIELD     PTCLDY    32  31  96 W7        29.92S WCI  26
STEVENS POINT  CLOUDY    32  32 100 CALM      29.94R FOG
WAUPACA        CLOUDY    35  33  94 CALM      29.94S FOG
WAUTOMA        CLOUDY    34  34 100 SW3       29.95S FOG
WISC RAPIDS    FOG       33  33 100 W5        29.95R VSB 1/4 WCI  29
CAMP DOUGLAS   CLOUDY    34  34 100 W9        29.96R FOG     WCI  26
$$

WIZ011>013-019>022-031-037>040-048>050-180400-
NORTHEAST WISCONSIN

CITY           SKY/WX    TMP DP  RH WIND       PRES   REMARKS
ANTIGO         FOG       28  28 100 CALM      29.90S VSB 1/2
SHAWANO        CLOUDY    35  33  94 CALM      29.93S FOG
OCONTO         CLOUDY    32  32  99 CALM      29.92S VSB 3/4
STURGEON BAY   FOG       32  32 100 N3        29.92S VSB 1
GREEN BAY      FOG       35  35 100 CALM      29.93F VSB 1/2
MANITOWOC      CLOUDY    34  33  96 MISG      29.93S
APPLETON       FOG       34  34 100 VRB5      29.92S VSB 1/2 WCI  30
CLINTONVILLE   CLOUDY    34  32  93 W3        29.93R FOG
OSHKOSH        CLOUDY    33  33 100 W5        29.93S FOG     WCI  29
$$

WIZ032>034-041-042-053>061-180400-
SOUTHWEST WISCONSIN

CITY           SKY/WX    TMP DP  RH WIND       PRES   REMARKS
LA CROSSE      CLOUDY    35  32  88 NW5       30.00R FOG     WCI  31
SPARTA         CLOUDY    33  33 100 W3        29.99R FOG
VIROQUA        CLOUDY    33  33 100 W5        29.97R VSB 1/4 WCI  28
BOSCOBEL       CLOUDY    35  33  92 SW6       30.01R WCI  30
PRAIRIE DU CHI CLOUDY    34  33  96 CALM      30.03R FOG
PLATTEVILLE    CLOUDY    33  33 100 W8        30.00S WCI  27
$$

WIZ056-057-062-063-064-067-068-180400-
SOUTH CENTRAL WISCONSIN

CITY           SKY/WX    TMP DP  RH WIND       PRES   REMARKS
REEDSBURG      CLOUDY    33  33 100 W3        29.96  FOG
BARABOO/DELLS  FOG       33  33  99 W5        29.96R VSB 1   WCI  29
LONE ROCK      CLOUDY    34  32  92 W7        30.00R FOG     WCI  28
MINERAL POINT  CLOUDY    34  34 100 W8        29.98R FOG     WCI  27
MADISON        DRIZZLE   34  33  96 W3        29.97S FOG
MIDDLETON      CLOUDY    35  35 100 W6        29.97S WCI  29
WATERTOWN      CLOUDY    33  33 100 W5        29.95R FOG     WCI  28
MONROE         CLOUDY    32  32 100 W10       29.98R WCI  24
JANESVILLE     CLOUDY    36  36 100 W9        29.98R WCI  29
$$

WIZ051-052-058>065-066-070>072-180400-
SOUTHEAST WISCONSIN

CITY           SKY/WX    TMP DP  RH WIND       PRES   REMARKS
MILWAUKEE      CLOUDY    36  33  89 W8        29.95R WCI  30
WAUKESHA       CLOUDY    32  32 100 W9        29.95S FOG     WCI  24
MILWAUKEE/TIMM CLOUDY    34  32  93 W7        29.95R FOG     WCI  28
RACINE         LGT RAIN  35  33  92 W8        29.97R WCI  29
KENOSHA        CLOUDY    34  33  96 W9        29.96R FOG     WCI  27
FOND DU LAC    CLOUDY    34  31  88 NW5       29.94S FOG     WCI  30
SHEBOYGAN      CLOUDY    34  32  92 NW6       29.93R FOG     WCI  29
WEST BEND      CLOUDY    32  32 100 NW6       29.94R WCI  26
JUNEAU         CLOUDY    32  32  99 W3        29.95S FOG
$$

LSZ147-162-180400-
LAKE SUPERIOR

STATION/POSITION TIME  TEMP    WIND        PRES    WAVE
                       AIR SEA DIR/SP/G            HT/PER
                 (UTC) (F)     (DEG/KT/KT) (MB)    (FT/S)
DEVILS ISLAND    0300   33     190/  8/ 10 1012.5F
PORT WING        0230   26     190/  6/  6 1012.5S
SAXON HARBOR     0230   23     190/  4/  7 1012.5S
$$

LMZ867-665-643>646-180400-
LAKE MICHIGAN

STATION/POSITION TIME  TEMP    WIND        PRES    WAVE
                       AIR SEA DIR/SP/G            HT/PER
                 (UTC) (F)     (DEG/KT/KT) (MB)    (FT/S)
NORTHPORT PIER   0240   33        CALM     1012.9S
SISTER BAY       0235   32        CALM       N/A
ALGOMA LAKESHORE 0153          320/  4/  6   N/A
KEWAUNEE LAKESHO 0242   33     310/  4/  6 1012.8R
SHEBOYGAN LAKESH 0300   34     300/  7/  9 1014.0R
PORT WASHINGTON  0230   35     300/  5/  9 1014.6S
MILWAUKEE LAKESH 0250   35     290/  5/  9   N/A
KENOSHA   LAKESH 0300   35     260/  7/ 11 1014.6
$$

TC  - TEMPERATURE IN CELSIUS
VSB - VISIBILITY IN STATUTE MILES
WCI - WIND CHILL INDEX
HX  - HEAT INDEX





USA.gov is the U.S. government's official web portal to all federal, state and local government web resources and services.